Back to catalog

STARLINK-31057

AliveCommunicationsVLEO
NORAD 58545·PAYLOAD·🇺🇸 United States

Launched Dec 8, 2023 from Vandenberg Space Force Base

Loading…

Next Passes (next 24 hours)

TLE

FreshSource: CelesTrak SupGP

Epoch: Sep 15, 2026, 03:18 UTC

1 58545C 23192Q   26258.13798611 -.00035303  00000+0 -10428-2 0  2583
2 58545  53.1574 258.7328 0001577  80.4129  65.9320 15.34413857    10

Track STARLINK-31057 in real time with AllMySat

Download on the App Store